Weather reports worldwide

Advertisment
Fyvie castle, United Kingdom (99010): temperature & dewpoint: 12.01.2018 13:00:00 - 18.01.2018 13:00:00 (GMT)Fyvie castle, United Kingdom (99010): precipitation: 12.01.2018 13:00:00 - 18.01.2018 13:00:00 (GMT)
Date & Time tt [°C] td [°C] rr [mm]
18.01.2018 13:00:00 2,3 -1,8 0,2
18.01.2018 12:00:00 1,7 -1,9 0,0
18.01.2018 11:00:00 1,4 -1,8 0,0
18.01.2018 10:00:00 1,0 -1,6 0,0
18.01.2018 09:00:00 0,4 -1,9 0,0
18.01.2018 08:00:00 -0,1 -1,5 0,0
18.01.2018 07:00:00 -1,3 -1,8 0,0
18.01.2018 06:00:00 -4,4 -4,9 0,0
18.01.2018 05:00:00 -4,9 -5,6 0,0
18.01.2018 04:00:00 -4,3 -5,1 0,0
18.01.2018 03:00:00 -3,7 -4,7 0,0
18.01.2018 02:00:00 -3,2 -4,0 0,0
18.01.2018 01:00:00 -3,3 -4,2 0,0
18.01.2018 00:00:00 -2,9 -4,1 0,0
17.01.2018 23:00:00 -2,4 -3,7 0,0
17.01.2018 22:00:00 -1,3 -3,2 0,0
17.01.2018 21:00:00 0,9 -3,1 0,0
17.01.2018 20:00:00 0,3 -2,2 0,0
17.01.2018 19:00:00 0,6 -2,0 0,0
17.01.2018 18:00:00 1,0 -1,9 0,0
17.01.2018 17:00:00 1,6 -1,5 0,0
17.01.2018 16:00:00 2,4 -1,6 0,0
17.01.2018 15:00:00 3,1 -1,6 0,0
17.01.2018 14:00:00 3,4 -1,5 0,0
17.01.2018 13:00:00 3,0 -1,7 0,0
17.01.2018 12:00:00 3,2 -2,0 0,0
17.01.2018 11:00:00 2,4 -1,7 0,0
17.01.2018 10:00:00 1,5 -2,5 0,0
17.01.2018 09:00:00 1,2 -2,1 0,0
17.01.2018 08:00:00 1,1 -2,4 0,0
17.01.2018 07:00:00 1,1 -2,1 0,0
17.01.2018 06:00:00 0,8 -1,1 0,0
17.01.2018 05:00:00 0,9 -2,3 0,0
17.01.2018 04:00:00 -1,3 -3,5 0,0
17.01.2018 03:00:00 -3,7 -5,2 0,0
17.01.2018 02:00:00 -2,4 -5,5 0,0
17.01.2018 01:00:00 -1,3 -5,0 0,0
17.01.2018 00:00:00 -2,8 -4,6 0,0
16.01.2018 23:00:00 -1,8 -5,0 0,0
16.01.2018 22:00:00 -1,6 -4,1 0,0
16.01.2018 21:00:00 -2,2 -4,5 0,0
16.01.2018 20:00:00 -1,7 -4,4 0,0
16.01.2018 19:00:00 -0,9 -4,5 0,0
16.01.2018 18:00:00 -0,5 -4,0 0,0
16.01.2018 17:00:00 -0,3 -3,1 0,0
16.01.2018 16:00:00 0,8 -3,3 0,0
16.01.2018 15:00:00 1,2 -2,3 0,0
16.01.2018 14:00:00 2,0 -2,3 0,0
16.01.2018 13:00:00 1,6 -1,5 0,0
16.01.2018 12:00:00 2,7 -3,1 0,0
16.01.2018 11:00:00 1,0 -2,8 0,0
16.01.2018 10:00:00 0,9 -3,8 0,0
16.01.2018 09:00:00 1,0 -3,7 0,0
16.01.2018 08:00:00 1,0 -3,1 0,0
16.01.2018 07:00:00 0,7 -3,2 0,0
16.01.2018 06:00:00 0,5 -3,8 0,0
16.01.2018 05:00:00 1,0 -3,6 0,0
16.01.2018 04:00:00 0,4 -4,1 0,0
16.01.2018 03:00:00 1,2 -3,6 0,0
16.01.2018 02:00:00 1,5 -3,0 0,0
16.01.2018 01:00:00 1,7 -3,1 0,0
16.01.2018 00:00:00 2,1 -2,9 0,0
15.01.2018 23:00:00 0,9 -2,4 0,0
15.01.2018 22:00:00 1,6 -2,1 0,0
15.01.2018 21:00:00 0,9 -2,1 0,0
15.01.2018 20:00:00 0,3 -2,1 0,2
15.01.2018 19:00:00 1,7 -0,9 0,0
15.01.2018 18:00:00 0,6 -1,4 0,0
15.01.2018 17:00:00 2,1 -0,5 0,0
15.01.2018 16:00:00 4,3 0,3 0,0
15.01.2018 15:00:00 4,8 1,8 0,0
15.01.2018 14:00:00 5,3 1,5 0,0
15.01.2018 13:00:00 5,6 1,7 0,0
15.01.2018 12:00:00 6,0 1,7 0,0
15.01.2018 11:00:00 5,1 2,2 0,0
15.01.2018 10:00:00 3,4 1,8 0,0
15.01.2018 09:00:00 4,8 2,5 0,2
15.01.2018 08:00:00 2,6 1,8 0,0
15.01.2018 07:00:00 3,7 2,1 0,0
15.01.2018 06:00:00 3,6 3,0 0,2
15.01.2018 05:00:00 3,6 2,9 0,0
15.01.2018 04:00:00 4,5 3,7 0,0
15.01.2018 03:00:00 5,5 4,1 0,0
15.01.2018 02:00:00 5,5 3,8 0,0
15.01.2018 01:00:00 5,3 3,4 0,0
15.01.2018 00:00:00 5,8 3,0 0,0
14.01.2018 23:00:00 5,6 2,9 0,0
14.01.2018 22:00:00 5,5 2,9 0,0
14.01.2018 21:00:00 5,5 3,0 0,0
14.01.2018 20:00:00 5,5 3,1 0,0
14.01.2018 19:00:00 5,3 3,1 0,0
14.01.2018 18:00:00 5,2 3,2 0,2
14.01.2018 17:00:00 5,3 3,0 0,0
14.01.2018 16:00:00 5,4 3,0 0,0
14.01.2018 15:00:00 5,4 2,9 0,0
14.01.2018 14:00:00 5,4 3,0 0,0
14.01.2018 13:00:00 5,1 3,0 0,0
14.01.2018 12:00:00 4,8 2,9 0,0
14.01.2018 11:00:00 4,6 2,7 0,0
14.01.2018 10:00:00 4,6 2,8 0,0
14.01.2018 09:00:00 4,7 2,7 0,0
14.01.2018 08:00:00 4,8 3,0 0,0
14.01.2018 07:00:00 4,9 3,0 0,0
14.01.2018 06:00:00 5,2 3,1 0,0
14.01.2018 05:00:00 5,2 3,0 0,0
14.01.2018 04:00:00 5,3 3,0 0,0
14.01.2018 03:00:00 5,4 3,0 0,0
14.01.2018 02:00:00 5,5 3,0 0,0
14.01.2018 01:00:00 5,5 3,0 0,0
14.01.2018 00:00:00 5,5 3,0 0,0
13.01.2018 23:00:00 5,4 2,8 0,0
13.01.2018 22:00:00 5,4 2,7 0,0
13.01.2018 21:00:00 5,3 2,5 0,0
13.01.2018 20:00:00 4,9 2,0 0,0
13.01.2018 19:00:00 4,8 1,7 0,0
13.01.2018 18:00:00 5,2 1,7 0,0
13.01.2018 17:00:00 5,5 1,8 0,0
13.01.2018 16:00:00 5,7 2,2 0,0
13.01.2018 15:00:00 5,4 2,8 0,0
13.01.2018 14:00:00 5,9 2,6 0,0
13.01.2018 13:00:00 5,9 2,7 0,0
13.01.2018 12:00:00 6,4 2,5 0,0
13.01.2018 11:00:00 6,3 3,8 0,0
13.01.2018 10:00:00 5,8 3,9 0,0
13.01.2018 09:00:00 5,0 3,4 0,2
13.01.2018 08:00:00 5,5 2,5 0,0
13.01.2018 07:00:00 5,8 2,8 0,0
13.01.2018 06:00:00 5,7 3,2 0,0
13.01.2018 05:00:00 5,8 2,7 0,0
13.01.2018 04:00:00 5,4 2,5 0,0
13.01.2018 03:00:00 5,6 2,7 0,0
13.01.2018 02:00:00 5,1 2,3 0,0
13.01.2018 01:00:00 5,1 2,7 0,0
13.01.2018 00:00:00 5,2 3,1 0,0
12.01.2018 23:00:00 5,5 3,0 0,0
12.01.2018 22:00:00 5,4 3,1 0,0
12.01.2018 21:00:00 5,5 3,3 0,0
12.01.2018 20:00:00 5,5 3,4 0,0
12.01.2018 19:00:00 6,6 4,3 0,0
12.01.2018 18:00:00 6,6 4,5 0,0
12.01.2018 17:00:00 6,7 4,1 0,0
12.01.2018 16:00:00 6,5 3,9 0,0
12.01.2018 15:00:00 6,8 4,8 0,0
12.01.2018 14:00:00 7,0 5,3 0,0
12.01.2018 13:00:00 - - 0,0

tt = temperature
td = dewpoint
rr = precipitation

Next stations